Flag for Germany Weather past 2 weeks in Münster, North Rhine-Westphalia, Germany

Now
39 °F

Fog.


Feels Like: 33 °F
Forecast: 34 / 39 °F
Wind: 9 mph from Southwest

Location: Muenster / Osnabrueck

Current Time: Jan 28, 2015 at 8:12:25 AM

Latest Report: Jan 28, 2015 at 7:20 AM


Visibility: 3 mi

Pressure: 29.92 "Hg

Humidity: 93%

Dew point: 37 °F

Location of MünsterLocation

Historic Weather in Münster — Graph

°F

Münster temperature yesterday

Maximum temperature yesterday: 43 °F (at 12:50 PM)
Minimum temperature yesterday: 36 °F (at 1:50 AM)
Average temperature yesterday: 39 °F

Past Weeks' High & Low Weather Summary

 TemperatureHumidityPressure
High52 °F (Jan 13, 6:20 AM)100% (Jan 17, 2:50 AM)30.36 "Hg (Jan 17, 2:50 AM)
Low23 °F (Jan 21, 1:50 AM)65% (Jan 21, 1:50 PM)29.39 "Hg (Jan 15, 3:50 PM)
Average36 °F89%29.94 "Hg
* Reported Jan 13 6:20 AM — Jan 28 6:50 AM, Münster, Weather by CustomWeather, © 2014

Note: Actual official high and low records may vary slightly from our data, if they occured in-between our weather recording intervals... More about our weather records

Advertising

Münster weather history for previous 24 hours

 ConditionsComfort  
Time TempWeatherWind HumidityBarometerVisibility
6:50 AM
Jan 28
39 °FDrizzle. Fog.12 mph93%29.92 "Hg2 mi
6:20 AM39 °FFog.10 mph93%29.92 "Hg2 mi
5:50 AM39 °FFog.8 mph93%29.95 "Hg2 mi
5:20 AM39 °FFog.8 mph93%29.98 "Hg3 mi
4:50 AM39 °FFog.9 mph100%29.98 "Hg3 mi
4:20 AM37 °FDrizzle. Fog.8 mph100%30.01 "Hg2 mi
3:50 AM37 °FDrizzle. Fog.7 mph100%30.01 "Hg3 mi
3:20 AM37 °FPassing clouds.9 mph100%30.04 "Hg4 mi
2:50 AM37 °FPassing clouds.7 mph93%30.07 "Hg5 mi
2:20 AM37 °FPassing clouds.7 mph93%30.07 "Hg5 mi
1:50 AM39 °FPassing clouds.7 mph93%30.09 "Hg5 mi
1:20 AM39 °FPassing clouds.8 mph93%30.09 "Hg4 mi
12:50 AM37 °FPassing clouds.6 mph100%30.09 "Hg4 mi
12:20 AM37 °FPassing clouds.6 mph100%30.09 "Hg4 mi
11:50 PM
Jan 27
39 °FFog.6 mph100%30.12 "Hg3 mi
11:20 PM39 °FFog.3 mph100%30.12 "Hg3 mi
10:50 PM37 °FFog.5 mph100%30.12 "Hg3 mi
10:20 PM37 °FPassing clouds.5 mph100%30.12 "Hg4 mi
9:50 PM37 °FPassing clouds.5 mph100%30.12 "Hg5 mi
9:20 PM39 °FPassing clouds.8 mph100%30.15 "Hg6 mi
8:50 PM37 °FPassing clouds.6 mph100%30.15 "HgN/A
8:20 PM37 °FPassing clouds.6 mph100%30.15 "HgN/A
7:50 PM37 °FPartly cloudy.6 mph93%30.15 "HgN/A
7:20 PM37 °FPassing clouds.7 mph93%30.15 "HgN/A
6:50 PM39 °FPassing clouds.7 mph93%30.15 "HgN/A
6:20 PM39 °FPartly cloudy.5 mph93%30.15 "HgN/A
5:50 PM39 °FPartly cloudy.3 mph93%30.12 "HgN/A
5:20 PM41 °FPartly cloudy.3 mph87%30.12 "HgN/A
4:50 PM41 °FBroken clouds.9 mph93%30.12 "HgN/A
4:20 PM43 °FPartly sunny.8 mph81%30.12 "HgN/A
3:50 PM43 °FPartly sunny.8 mph81%30.12 "HgN/A
3:20 PM43 °FBroken clouds.10 mph81%30.12 "HgN/A
2:50 PM43 °FBroken clouds.9 mph81%30.12 "HgN/A
2:20 PM43 °FBroken clouds.9 mph81%30.12 "HgN/A
1:50 PM43 °FScattered clouds.9 mph87%30.12 "HgN/A
1:20 PM43 °FBroken clouds.10 mph81%30.12 "HgN/A
12:50 PM43 °FBroken clouds.8 mph81%30.12 "HgN/A
12:20 PM41 °FBroken clouds.9 mph87%30.12 "HgN/A
11:50 AM41 °FBroken clouds.7 mph87%30.12 "HgN/A
11:20 AM39 °FPartly sunny.8 mph93%30.12 "HgN/A
10:50 AM39 °FPartly sunny.8 mph93%30.12 "HgN/A
10:20 AM37 °FPartly sunny.8 mph93%30.12 "HgN/A
9:50 AM37 °FPartly sunny.7 mph93%30.12 "HgN/A
9:20 AM36 °FPartly sunny.7 mph100%30.12 "HgN/A
8:50 AM36 °FPartly sunny.7 mph93%30.12 "HgN/A
8:20 AM36 °FPartly sunny.8 mph100%30.12 "HgN/A
Weather by CustomWeather, © 2014

See weather overviewHow to use our weather pages